Showing default

COSMOS 2457 (GLONASS), 36112

Orbit data source: Space-Track

COSMOS 2457 (GLONASS), 36112 is a Commonwealth of Independent States-origin payload satellite in MEO that was launched on Mon, 14 Dec 2009 UTC via a PROTON-M/DM-2 launch vehicle from the Tyuratam Missile And Space Complex (TTMTR). Payload-class satellites include a variety of spacecraft equipped with specific instruments for various scientific and technological missions. These include communications satellites like Starlink; space stations such as the ISS; scientific satellites like the Hubble; Earth observation satellites from companies like Planet Labs, Umbra, and HawkEye 360; GPS; miniature CubeSats for education and research; and military/defense satellites.

Loading next visibility...
Identifier
36112, 2009-070B
Orbit
MEO
Country
Flag of CISCIS
Related business
Manufacturer
Resehetnev ISS
Mission
Operational Defense Navigation
Bus & Motor
URAGAN, Unknown motor
Mass
1,450 kg wet, ~1,200 kg dry
Launch date (UTC)
2009-12-14 (16 years ago)
Launch vehicle
PROTON-M/DM-2
Launch site
Tyuratam Missile And Space Complex (TTMTR)
Object type
Payload
Rocket body
Debris
Shape & HBR
Cyl + 1 Ant + 2 Pan, 3.9 m
Radar Cross Section
8.467 m², Large (>1 m²)

Expand to show TLE details & history
Last TLE update: 2 days ago

TLE from 2 days ago
0 COSMOS 2457 (GLONASS)
1 36112U 09070B   25347.33262422 -.00000051  00000-0  00000-0 0  9991
2 36112  64.8861  77.1650 0004703 158.4470 204.9439  2.13100875124473
Epoch: 2025-12-13T07:58Z
TLE epoch observation values (Epoch: 2025-12-13T07:58:58.732Z)
Latitude
3.04°
Longitude
-123.41338°
Altitude
19,141.084 km
Speed
3.951 km/s
True Right ascension
05h 14m 22s
True Declination
3° 02' 06"
Sunlit
Object was in daylight at epoch
Visualization orbit readout
Latitude
Unknown
Longitude
Unknown
Altitude
Unknown
Speed
Unknown
Apparent Right ascension
Unknown
Apparent Declination
Unknown
Sunlit
N/A
Visualization observer readout
Local Sidereal Time
13:24:35
Azimuth
Unknown
Elevation
Unknown
Doppler factor
Unknown
Orbital elements
Apogee altitude
19,141.592 km
Perigee altitude
19,117.6 km
Semi-major axis
25,507.733 km
Eccentricity
0.00047
Inclination
64.8861°
RAAN
77.165°
Arg. of periapsis
158.447°
True anomaly
204.92118°
Mean anomaly
204.9439°
Eccentric anomaly
204.93254°
Mean motion
0.53276 °/min
Orbital period
675.72 mins
BSTAR
0
Loading maneuver chart data...
Computing Atmospheric mass density...

Documentation

Showing up to 5 results
|